Location: San Gennaro Vesuviano
(40.8833°N, 14.5333°E)
Time: 10:29:08
(UTC+00:00)

Cosmos 2082 - Pass Details

Date: 22 April 2021
Orbit: 834 x 855 km, 71.0° (Epoch: 10 May)

Event Time Altitude Azimuth Distance (km) Brightness Sun altitude
Exits shadow 20:37:18 20° 225° (SW) 1,849 5.4 -27.2°
Maximum altitude 20:41:08 56° 297° (WNW) 990 4.2 -27.7°
Drops below altitude 10° 20:46:39 10° 16° (NNE) 2,454 6.5 -28.3°
Sets 20:49:10 0° 20° (NNE) 3,394 7.3 -28.6°
